Wind_Speed
30 30 31 31 32 32 32 32 33 33 32 32 32 32 32 32 32 33 33 33 34 34 35 35 35 35 35 35 35 35 35 35 35 35 34 34 34 34 34 33 33 32 32
31 31 32 32 32 33 34 34 34 34 34 34 34 34 34 35 35 35 35 36 36 37 37 37 37 37 37 37 37 37 37 38 38 38 37 37 36 36 36 35 35 35 34
32 32 33 34 34 34 35 35 35 35 35 35 35 35 35 36 37 37 37 38 38 38 39 40 40 40 40 40 39 39 39 40 40 40 40 39 38 38 37 37 37 36 36
32 32 33 33 34 34 35 35 36 36 36 36 37 37 37 38 38 38 39 39 39 39 40 41 42 43 43 42 42 41 42 41 42 42 42 41 40 40 39 38 38 37 37
32 32 33 34 34 34 35 36 36 37 37 38 38 38 38 39 39 40 40 40 40 41 41 42 42 43 43 43 43 43 42 42 42 43 43 43 43 43 42 40 40 39 39
34 34 35 35 35 35 36 36 37 38 38 38 39 39 39 40 40 41 41 42 42 42 42 43 43 43 44 45 45 45 45 44 44 45 45 44 45 45 44 43 42 41 41
35 36 36 36 36 36 36 37 37 38 39 40 40 40 40 41 41 42 42 42 42 43 43 44 44 45 46 46 47 48 48 48 47 47 46 46 46 45 46 45 45 43 42
36 36 36 36 36 36 37 38 38 38 39 39 40 41 40 40 41 41 41 42 42 43 43 43 44 45 46 46 47 48 48 49 49 48 48 48 48 47 47 47 47 46 45
36 37 37 36 36 37 37 37 37 37 38 39 40 40 40 39 40 40 40 41 41 41 42 43 44 44 45 46 46 47 48 48 48 49 49 48 49 50 49 49 49 48 47
36 36 36 36 37 37 38 38 38 38 39 39 40 40 40 40 40 39 39 40 41 42 43 44 45 45 46 46 47 48 49 49 49 49 50 50 50 51 51 51 50 49 49
37 37 37 37 37 37 38 38 39 39 40 40 40 40 40 41 41 41 41 42 42 43 43 44 45 46 47 48 49 50 51 51 51 51 52 51 51 52 52 51 49 49 50
37 37 37 37 37 37 38 39 40 40 40 40 40 40 40 41 41 42 42 42 42 43 43 44 44 45 47 48 49 50 51 51 52 51 52 53 53 53 53 53 51 51 51
35 36 36 37 37 38 38 39 39 39 39 40 40 40 40 40 41 41 42 42 42 43 44 45 46 47 47 48 48 49 50 50 51 50 51 52 53 54 54 55 55 54 53
35 36 36 37 37 38 39 39 39 39 39 39 39 39 40 40 41 42 42 42 42 42 44 44 46 47 48 48 48 48 49 49 49 49 50 50 50 51 53 54 55 55 55
35 36 36 37 37 37 38 38 39 40 40 40 40 40 40 41 41 42 42 42 42 42 43 44 45 46 46 47 47 48 48 49 50 50 50 50 49 50 52 53 53 54 54
36 37 37 38 38 38 39 39 40 40 40 40 41 41 41 41 42 42 42 43 43 43 43 44 45 46 47 46 46 46 47 48 48 49 49 50 51 51 52 53 53 52 53
37 37 38 38 39 39 39 39 39 40 40 40 40 40 40 41 41 42 42 43 44 44 44 44 45 46 46 46 45 46 47 48 49 50 51 52 52 52 53 53 52 53 53
38 38 38 39 39 39 39 39 39 39 40 40 40 40 41 41 42 42 43 44 44 45 45 45 46 46 45 45 45 46 46 47 48 49 50 51 52 52 53 53 53 54 54
39 39 39 39 39 39 39 39 39 40 40 41 41 42 42 42 43 43 44 45 46 47 47 47 46 45 45 45 45 45 46 47 48 49 50 51 51 52 53 53 54 55 56
38 38 39 38 39 39 39 40 40 41 41 41 42 42 43 43 44 45 46 47 47 48 49 48 47 46 46 46 46 46 47 48 48 50 51 51 52 53 54 55 56 56 57
38 38 38 38 39 39 40 41 41 42 42 43 43 43 44 45 45 46 47 48 49 49 49 48 47 47 47 48 48 49 49 49 49 50 51 52 52 53 55 55 56 56 58
38 38 38 39 39 40 41 42 42 43 43 44 44 45 45 46 47 47 48 48 48 48 47 47 47 48 48 49 50 50 50 50 49 50 51 52 53 54 56 56 57 58 59
38 38 39 40 40 41 42 43 44 44 44 44 44 45 46 47 47 47 48 49 49 48 48 48 48 48 48 49 49 49 49 49 49 49 50 50 52 53 54 55 56 58 59
38 39 40 40 41 41 42 43 44 44 44 45 45 45 46 47 47 48 49 49 48 48 48 49 49 49 49 49 49 49 49 49 49 50 51 51 51 52 53 54 55 56 58
39 40 40 41 41 42 42 43 43 44 44 45 45 45 46 47 47 48 48 48 48 48 48 49 48 48 49 49 49 49 49 49 49 50 51 52 52 52 53 53 54 55 55
39 40 41 41 42 42 42 43 43 44 44 44 44 45 45 46 46 46 46 46 46 46 47 47 47 47 48 48 49 49 49 50 50 50 51 52 52 52 51 51 52 53 54
Wind_Direction
273 274 275 276 277 278 278 278 278 278 279 279 280 280 280 281 281 281 281 280 279 279 278 277 276 276 276 275 276 276 275 275 274 274 273 273 273 274 275 276 277 278 279
274 275 275 276 277 278 278 278 278 278 278 278 279 280 280 280 280 281 281 281 280 279 278 277 276 275 275 275 275 274 274 273 273 273 273 273 273 273 274 275 275 276 276
275 275 275 276 277 279 280 279 278 278 279 279 280 281 281 281 280 281 281 281 280 279 278 276 275 275 274 274 274 275 275 274 273 272 272 271 271 272 272 273 274 274 274
275 276 277 278 279 279 280 281 280 279 280 280 281 281 281 281 281 281 281 280 280 279 277 277 276 275 274 274 273 274 274 274 273 272 271 270 269 270 271 271 271 272 273
276 276 278 279 280 280 280 281 282 281 281 281 281 282 282 282 282 282 281 281 280 279 278 277 276 275 274 274 273 273 272 273 273 272 271 269 269 270 270 270 270 271 272
276 277 279 280 280 281 282 281 282 282 282 282 282 282 283 283 283 283 282 281 280 279 279 278 276 276 275 274 273 273 273 273 273 272 271 270 270 269 268 268 269 270 270
275 277 278 279 280 281 282 282 282 283 283 283 283 283 283 283 283 283 283 282 281 280 280 279 278 277 276 274 274 274 272 272 272 272 271 270 269 268 267 267 267 267 268
276 277 278 279 280 281 282 283 283 283 284 284 284 283 283 283 284 284 284 283 282 281 280 279 278 278 276 275 274 273 273 272 272 272 272 271 269 267 266 266 266 266 266
275 276 278 279 280 281 282 283 283 284 284 285 285 285 285 284 283 284 285 285 284 283 282 281 279 278 277 275 274 273 272 272 272 271 271 269 268 267 265 265 265 265 265
276 276 277 278 279 280 281 282 282 283 284 286 285 285 285 285 284 283 283 284 283 283 283 282 279 277 276 276 274 272 272 272 271 270 270 269 268 267 266 264 264 264 264
276 277 278 278 280 281 281 281 283 284 284 285 286 286 285 285 285 284 284 284 283 284 284 283 282 279 276 276 275 273 272 271 270 270 269 268 267 267 266 265 264 264 264
278 278 279 280 281 282 283 282 283 284 284 285 285 285 285 286 286 286 286 285 284 284 284 283 283 283 280 278 276 274 273 272 271 270 270 268 267 266 265 264 264 264 264
279 280 281 282 284 284 284 284 284 284 284 285 285 285 286 287 287 287 287 286 286 285 284 283 282 282 281 279 278 276 273 273 271 270 269 268 267 266 265 264 264 264 264
279 280 282 283 284 285 285 285 285 285 285 286 285 285 286 287 288 288 288 288 287 286 286 285 284 284 282 279 278 277 275 273 272 270 269 269 267 266 265 264 264 264 263
279 281 282 283 285 286 286 286 286 286 286 286 287 287 287 288 288 288 288 288 288 288 287 286 286 285 284 283 280 278 277 275 273 272 271 269 268 267 266 265 264 263 262
279 281 282 283 285 286 287 287 287 287 287 287 287 288 289 290 290 290 289 289 290 290 290 289 287 285 284 283 281 279 278 276 275 273 271 270 269 269 268 267 265 264 263
279 281 283 284 286 287 287 288 288 288 288 288 288 288 290 291 291 291 291 291 292 292 292 292 291 289 287 284 282 280 279 278 276 274 272 272 271 270 269 269 267 265 265
280 281 283 285 286 287 288 288 288 288 288 288 288 288 289 290 290 290 291 292 292 292 293 292 291 290 288 285 283 281 280 279 277 276 275 274 273 271 271 270 269 267 265
280 281 282 284 285 286 287 287 288 288 289 289 289 288 288 289 289 290 290 291 292 291 291 292 291 289 287 286 284 283 282 281 278 277 276 274 273 272 272 271 270 269 266
280 281 281 282 283 285 286 287 288 288 289 289 289 288 288 289 289 290 290 291 291 291 291 291 289 289 288 286 285 284 283 282 281 279 277 275 273 272 271 271 270 269 267
281 281 281 282 282 284 286 287 288 289 289 290 289 289 289 289 290 290 291 292 292 292 291 290 289 288 288 287 286 285 284 283 283 281 279 276 274 273 271 270 269 268 266
281 281 282 282 283 285 286 287 288 289 289 289 289 289 289 289 290 290 291 292 293 293 292 291 290 289 289 289 288 287 286 284 283 281 280 278 277 275 274 272 271 269 268
281 281 282 284 285 287 288 289 289 289 289 289 289 290 290 290 290 291 292 293 293 292 292 291 291 290 290 290 289 288 287 284 283 282 281 280 278 277 275 274 272 270 268
282 283 284 284 286 288 289 290 290 290 289 289 290 290 290 291 291 292 293 293 293 292 292 291 291 291 291 291 290 289 287 286 285 284 283 282 280 279 277 276 274 272 270
283 284 285 286 287 288 290 291 291 291 291 291 290 291 292 292 293 294 294 293 292 292 292 293 292 292 292 292 291 290 289 288 287 286 285 284 283 281 279 277 276 274 272
285 285 286 286 287 288 289 290 290 291 291 292 292 292 293 294 294 295 295 294 293 293 294 294 294 294 294 294 293 292 290 289 288 287 286 285 285 283 280 278 276 274 273
Height
5828 5828 5828 5828 5827 5827 5826 5826 5825 5825 5825 5825 5824 5824 5823 5823 5822 5822 5821 5821 5821 5820 5820 5819 5819 5819 5819 5819 5818 5818 5818 5817 5817 5817 5817 5817 5817 5817 5816 5816 5816 5816 5815
5822 5822 5821 5821 5820 5820 5819 5818 5818 5818 5817 5817 5817 5816 5816 5815 5815 5814 5814 5813 5813 5812 5811 5811 5811 5811 5810 5810 5810 5810 5809 5809 5809 5809 5809 5809 5809 5809 5809 5808 5808 5808 5808
5815 5815 5814 5814 5813 5812 5812 5811 5810 5810 5810 5809 5809 5808 5808 5807 5806 5806 5805 5804 5804 5803 5803 5802 5802 5802 5801 5801 5801 5801 5801 5800 5800 5800 5800 5800 5800 5800 5800 5800 5800 5800 5800
5808 5808 5807 5806 5806 5805 5804 5803 5803 5802 5802 5801 5801 5800 5799 5798 5798 5797 5796 5795 5794 5794 5793 5793 5792 5792 5792 5792 5792 5792 5791 5791 5791 5791 5790 5790 5791 5791 5791 5791 5791 5791 5792
5801 5801 5800 5799 5798 5797 5796 5796 5795 5794 5793 5792 5792 5791 5790 5789 5788 5787 5786 5785 5784 5784 5783 5783 5782 5782 5781 5781 5781 5781 5781 5781 5781 5781 5781 5781 5781 5781 5782 5782 5782 5782 5783
5794 5793 5793 5792 5791 5790 5788 5787 5787 5786 5785 5784 5783 5782 5781 5779 5778 5777 5776 5775 5774 5773 5773 5772 5772 5771 5771 5770 5770 5770 5770 5770 5770 5770 5770 5770 5770 5771 5771 5772 5772 5773 5773
5786 5786 5785 5784 5783 5782 5781 5779 5778 5777 5776 5774 5774 5773 5771 5770 5768 5767 5765 5764 5764 5763 5762 5761 5761 5760 5759 5759 5758 5758 5758 5759 5758 5758 5758 5758 5758 5759 5760 5761 5762 5762 5763
5778 5777 5777 5776 5775 5773 5772 5771 5769 5768 5766 5765 5764 5762 5762 5761 5759 5757 5755 5754 5753 5752 5751 5750 5749 5747 5747 5746 5746 5746 5746 5746 5746 5746 5746 5746 5746 5747 5748 5749 5750 5751 5752
5769 5769 5768 5767 5766 5765 5763 5762 5760 5758 5757 5755 5754 5752 5751 5751 5749 5748 5745 5743 5742 5741 5740 5738 5737 5736 5735 5734 5734 5734 5733 5733 5733 5733 5733 5733 5733 5734 5735 5736 5737 5739 5740
5760 5760 5759 5758 5757 5756 5754 5753 5751 5749 5748 5746 5744 5742 5741 5739 5738 5738 5736 5733 5731 5730 5728 5727 5725 5724 5722 5721 5721 5721 5720 5720 5720 5719 5720 5720 5721 5721 5722 5723 5724 5726 5728
5752 5751 5750 5749 5748 5746 5745 5743 5742 5740 5738 5737 5735 5733 5731 5729 5727 5726 5726 5724 5721 5719 5717 5715 5713 5711 5710 5708 5707 5707 5706 5706 5706 5705 5705 5706 5706 5707 5708 5709 5711 5713 5714
5743 5742 5741 5740 5739 5737 5736 5734 5732 5730 5728 5727 5725 5723 5721 5719 5717 5715 5714 5712 5710 5708 5705 5703 5701 5698 5696 5695 5693 5693 5692 5692 5691 5691 5691 5691 5692 5692 5693 5694 5696 5698 5699
5735 5733 5732 5731 5729 5728 5726 5724 5722 5720 5718 5716 5715 5713 5711 5709 5706 5704 5702 5700 5698 5696 5693 5691 5688 5686 5684 5682 5680 5679 5678 5677 5677 5677 5677 5677 5677 5678 5678 5680 5681 5683 5684
5726 5725 5723 5722 5720 5718 5716 5714 5712 5710 5708 5706 5704 5702 5700 5698 5696 5693 5691 5689 5687 5685 5682 5679 5675 5673 5670 5668 5667 5665 5664 5663 5663 5662 5662 5662 5662 5663 5664 5665 5666 5668 5670
5717 5716 5714 5713 5711 5709 5706 5704 5702 5700 5698 5696 5694 5692 5690 5688 5685 5682 5680 5677 5675 5673 5671 5667 5663 5660 5657 5655 5653 5652 5650 5649 5649 5648 5648 5648 5648 5648 5649 5650 5651 5653 5654
5708 5706 5705 5703 5701 5699 5697 5694 5692 5690 5688 5686 5684 5682 5679 5677 5674 5672 5669 5666 5663 5660 5658 5654 5651 5647 5644 5642 5640 5638 5637 5635 5635 5634 5634 5634 5634 5634 5634 5635 5636 5637 5639
5698 5697 5695 5693 5691 5689 5687 5684 5682 5680 5678 5676 5673 5671 5669 5667 5664 5661 5658 5655 5652 5648 5645 5642 5638 5635 5632 5629 5627 5625 5624 5622 5621 5620 5619 5619 5619 5619 5619 5620 5621 5622 5623
5688 5687 5685 5683 5681 5679 5677 5674 5672 5670 5667 5665 5663 5661 5658 5656 5653 5650 5647 5644 5640 5636 5633 5630 5626 5623 5619 5617 5615 5612 5610 5608 5607 5606 5605 5604 5604 5604 5604 5604 5604 5605 5607
5678 5676 5675 5673 5671 5669 5667 5664 5662 5660 5657 5655 5652 5650 5647 5645 5642 5639 5636 5632 5628 5624 5620 5617 5614 5610 5607 5604 5602 5600 5597 5595 5593 5592 5591 5590 5589 5588 5588 5588 5588 5589 5590
5667 5666 5664 5662 5661 5659 5656 5654 5652 5649 5646 5644 5641 5638 5636 5633 5630 5627 5623 5619 5616 5612 5608 5604 5601 5598 5594 5591 5589 5586 5584 5581 5579 5577 5575 5574 5573 5572 5572 5572 5572 5572 5572
5657 5655 5653 5652 5650 5648 5646 5643 5641 5638 5635 5632 5630 5627 5624 5621 5617 5614 5610 5607 5603 5599 5595 5591 5587 5584 5581 5578 5575 5572 5569 5567 5564 5561 5560 5558 5557 5556 5555 5554 5553 5553 5553
5646 5645 5643 5641 5639 5637 5634 5632 5629 5626 5623 5621 5618 5615 5611 5608 5605 5601 5597 5593 5589 5585 5581 5578 5574 5570 5567 5563 5560 5556 5554 5551 5549 5547 5544 5542 5539 5538 5536 5535 5534 5534 5534
5636 5634 5632 5630 5628 5626 5623 5620 5617 5615 5612 5609 5605 5602 5599 5596 5592 5589 5585 5580 5576 5571 5568 5564 5560 5556 5552 5549 5545 5541 5538 5534 5532 5530 5527 5526 5523 5521 5519 5516 5515 5514 5514
5625 5623 5621 5619 5617 5614 5611 5609 5606 5603 5599 5596 5593 5590 5587 5583 5579 5576 5572 5567 5562 5558 5554 5550 5546 5542 5537 5533 5529 5526 5522 5519 5517 5514 5511 5509 5507 5504 5502 5499 5496 5494 5493
5614 5612 5610 5608 5605 5603 5600 5597 5594 5591 5587 5584 5581 5578 5574 5570 5567 5563 5559 5554 5550 5545 5540 5536 5531 5527 5522 5518 5514 5510 5507 5504 5501 5498 5494 5492 5490 5487 5485 5481 5477 5475 5473
5603 5601 5599 5596 5594 5591 5588 5585 5582 5579 5576 5572 5569 5565 5562 5558 5553 5549 5545 5541 5537 5532 5527 5523 5518 5513 5509 5504 5500 5496 5492 5488 5485 5482 5478 5475 5471 5468 5468 5465 5460 5456 5454